Poplar Bluff, MO

2:14 AM CDT on April 20, 2018 (GMT -0500)
Poplar Bluff Municipal

Weather History for KPOF - June, 2013

Change the Weather History Date:

Sunday, June 2, 2013

  Actual Average Record
Temperature  
Mean Temperature 68 °F -  
Max Temperature 77 °F 82 °F 98 °F (1934)
Min Temperature 62 °F 61 °F 44 °F (1956)
Cooling Degree Days 4    
Growing Degree Days 18 (Base 50)    
Moisture  
Dew Point 60 °F    
Average Humidity 72    
Maximum Humidity 90    
Minimum Humidity 57    
Precipitation  
Precipitation 0.00 in - - ()
Sea Level Pressure  
Sea Level Pressure 29.95 in    
Wind  
Wind Speed 6 mph (NW)    
Max Wind Speed 12 mph    
Max Gust Speed -    
Visibility 10 miles    
Events      
Averages and records for this station are not official NWS values.
T = Trace of Precipitation, MM = Missing Value Source: NWS Daily Summary

Daily Weather History Graph

Daily Weather History Graph

Search for Another Location

Airport or City:

Astronomy

Jun. 02, 2013 Rise Set
Actual Time 5:43 AM CDT 8:15 PM CDT
Civil Twilight 5:13 AM CDT 8:45 PM CDT
Nautical Twilight 4:35 AM CDT 9:23 PM CDT
Astronomical Twilight 3:54 AM CDT 10:04 PM CDT
Moon 2:02 AM CDT (6/2) 2:53 PM CDT (6/2)
Length of Visible Light 15h 32m
Length of Day
14h 32m
Waning Crescent, 30% of the Moon is Illuminated
Jun 2
Waning Crescent
Jun 8
New
Jun 16
First Quarter
Jun 23
Full
Jun 29
Last Quarter

Hourly Weather History & Observations

Time (CDT) Temp. Dew Point Humidity Pressure Visibility Wind Dir Wind Speed Gust Speed Precip Events Conditions
12:53 AM 68.0 °F 64.9 °F 90% 29.91 in 10.0 mi SW 4.6 mph - N/A   Scattered Clouds
1:53 AM 66.9 °F 64.0 °F 90% 29.92 in 10.0 mi WSW 4.6 mph - N/A   Scattered Clouds
2:53 AM 66.0 °F 62.1 °F 87% 29.91 in 10.0 mi West 3.5 mph - N/A   Scattered Clouds
3:53 AM 64.0 °F 61.0 °F 90% 29.92 in 10.0 mi WNW 4.6 mph - N/A   Clear
4:53 AM 63.0 °F 59.0 °F 87% 29.93 in 10.0 mi WNW 4.6 mph - N/A   Clear
5:53 AM 62.1 °F 57.9 °F 86% 29.94 in 10.0 mi NW 5.8 mph - N/A   Clear
6:53 AM 64.0 °F 57.0 °F 78% 29.94 in 10.0 mi NW 8.1 mph - N/A   Clear
7:53 AM 66.0 °F 57.9 °F 75% 29.95 in 10.0 mi NW 10.4 mph - N/A   Clear
8:53 AM 68.0 °F 57.9 °F 70% 29.95 in 10.0 mi NNW 11.5 mph - N/A   Clear
9:53 AM 70.0 °F 59.0 °F 68% 29.95 in 10.0 mi North 10.4 mph - N/A   Scattered Clouds
10:21 AM 71.6 °F 59.0 °F 64% 29.97 in 10.0 mi NW 6.9 mph - N/A   Mostly Cloudy
10:29 AM 71.6 °F 60.8 °F 69% 29.98 in 10.0 mi NW 5.8 mph - N/A   Scattered Clouds
10:37 AM 71.6 °F 59.0 °F 64% 29.98 in 10.0 mi NW 5.8 mph - N/A   Mostly Cloudy
10:53 AM 71.1 °F 59.0 °F 66% 29.97 in 10.0 mi NNW 8.1 mph - N/A   Mostly Cloudy
11:53 AM 73.9 °F 59.0 °F 59% 29.97 in 10.0 mi Variable 3.5 mph - N/A   Mostly Cloudy
12:53 PM 73.0 °F 60.1 °F 64% 29.97 in 10.0 mi WNW 6.9 mph - N/A   Overcast
1:53 PM 75.0 °F 60.1 °F 60% 29.96 in 10.0 mi WNW 5.8 mph - N/A   Mostly Cloudy
2:53 PM 75.9 °F 61.0 °F 60% 29.96 in 10.0 mi NNW 9.2 mph - N/A   Overcast
3:53 PM 75.0 °F 59.0 °F 57% 29.96 in 10.0 mi Variable 4.6 mph - N/A   Overcast
4:53 PM 75.9 °F 60.1 °F 58% 29.94 in 10.0 mi North 6.9 mph - N/A   Overcast
5:53 PM 73.9 °F 61.0 °F 64% 29.94 in 10.0 mi North 10.4 mph - N/A   Overcast
6:53 PM 72.0 °F 60.1 °F 66% 29.94 in 10.0 mi NNW 8.1 mph - N/A   Scattered Clouds
7:53 PM 70.0 °F 62.1 °F 76% 29.96 in 10.0 mi NNW 4.6 mph - N/A   Mostly Cloudy
8:53 PM 69.1 °F 59.0 °F 70% 29.96 in 10.0 mi North 6.9 mph - N/A   Mostly Cloudy
9:53 PM 66.9 °F 57.9 °F 73% 29.99 in 10.0 mi North 6.9 mph - N/A   Mostly Cloudy
10:53 PM 64.9 °F 59.0 °F 81% 29.99 in 10.0 mi North 5.8 mph - N/A   Overcast
11:53 PM 64.0 °F 57.9 °F 80% 30.00 in 10.0 mi NNW 3.5 mph - N/A   Overcast